User: anonymous   Login
Location: Unspecified
(0.0000°N, 0.0000°E)
Time: 05:16:49
(UTC+00:00)
Language:

Tiungsat 1 - Orbit

View from above orbital plane
View from above orbital plane
View from above satellite
View from above satellite

Ground track
Ground track

The orbit data is extracted from the following two-line orbital elements,

1 26548U 00057D   18350.88465851  .00000000  00000-0  16580-4 0  9993
2 26548  64.5517  89.8848 0029633 318.8126  41.0747 14.89260451987650
Epoch (UTC): 16 December 2018 21:13:54
Eccentricity: 0.0029633
inclination: 64.5517°
perigee height: 579 km
apogee height: 621 km
right ascension of ascending node: 89.8848°
argument of perigee: 318.8126°
revolutions per day: 14.89260451
mean anomaly at epoch: 41.0747°
orbit number at epoch: 98765

The dashed part of the orbit path shows where the satellite is in the earth's shadow,  

DLR